CAPE
6 2 2 3 1 1 0 1 0 0 1 1 0 0 1 0 0 1 0 0 0 2 0 0 0 0 0 0 0 0 0 0 0 0 0 0 0 0 0 0 0 0 0 0 0 0 0 0 0 0 0 0 0 0
5 1 3 2 0 1 0 0 1 0 0 0 1 0 0 0 2 9 0 0 6 23 0 0 0 0 0 0 0 0 0 0 1 0 1 0 0 0 0 0 0 0 0 0 0 0 0 0 0 0 0 0 1 2
5 2 4 2 0 1 0 0 1 0 0 1 2 1 1 1 0 14 1 0 0 1 0 0 0 0 0 0 0 0 0 0 1 0 0 1 0 7 23 6 0 0 0 0 0 0 0 0 0 0 0 4 0 14
3 2 3 2 0 0 0 0 0 0 0 0 2 1 1 1 2 6 0 0 13 17 3 0 0 0 0 0 0 3 0 0 23 6 0 0 2 0 0 0 7 0 0 0 0 0 0 0 0 0 0 1 16 0
3 1 5 1 0 0 0 0 0 0 0 0 0 1 3 0 1 6 0 0 5 9 3 2 0 0 0 0 0 0 1 9 33 11 0 0 0 6 1 0 0 0 0 0 0 0 0 0 0 0 0 0 16 16
4 1 5 2 0 0 0 0 0 0 0 0 0 1 2 1 4 2 1 10 4 1 1 0 0 0 0 0 0 0 0 19 44 21 1 0 0 0 0 0 12 199 548 697 268 0 0 0 0 0 0 0 0 0
7 1 3 2 0 0 0 0 0 0 0 0 0 0 6 4 0 2 0 0 0 0 0 0 0 0 0 9 11 0 6 30 11 20 0 0 0 0 2 0 7 31 15 142 768 454 0 0 0 0 0 0 0 1
7 0 0 2 0 0 0 0 0 0 0 0 0 0 1 7 2 0 0 0 3 14 0 0 0 1 9 9 16 6 10 28 12 8 7 0 15 0 4 0 1 17 191 493 669 663 699 582 398 274 151 188 0 23
6 1 2 0 0 0 0 0 0 0 0 0 0 1 1 1 6 0 0 0 0 3 1 3 0 0 1 11 10 3 17 22 19 0 1 12 0 0 0 0 35 4 1 71 544 475 615 719 563 475 399 416 410 534
3 0 3 0 0 0 0 0 0 0 0 0 0 0 0 1 3 0 0 2 8 3 0 1 8 3 0 9 6 6 12 4 13 0 34 0 0 0 0 0 7 75 113 188 460 486 383 417 562 565 516 427 199 237
2 0 3 0 0 0 0 0 0 0 0 7 12 3 0 3 15 20 22 3 1 1 1 1 2 2 1 1 10 8 15 36 26 23 1 25 0 0 0 0 0 13 16 75 176 206 293 423 394 528 385 465 898 971
1 0 0 0 0 0 0 0 0 0 0 0 0 1 6 8 10 11 6 6 3 1 0 0 0 0 0 8 8 5 0 15 9 4 25 7 0 0 0 0 0 0 50 169 383 475 461 620 554 771 1580 879 393 1253
0 0 0 0 0 0 0 0 0 0 0 2 0 0 1 0 13 6 1 2 6 0 1 7 4 15 8 1 4 0 22 27 90 117 71 22 126 41 0 0 0 0 415 752 1420 1732 1732 1830 2600 1711 1830 1719 668 1018
0 0 0 0 0 0 0 0 0 0 0 2 2 0 1 0 0 0 0 0 40 17 5 3 13 8 10 1 0 1 0 22 31 4 45 236 403 981 1091 318 11 549 857 858 1540 1786 1514 2542 2896 2678 2714 1955 1835 1057
0 0 0 0 0 0 0 0 0 6 0 1 2 0 0 0 0 9 67 33 57 75 40 4 10 9 4 1 0 0 0 0 1 0 7 139 582 678 780 931 1060 1048 792 1055 1531 1861 2482 2775 2902 3100 2988 2856 3452 2640
0 0 0 0 0 0 0 0 8 3 3 1 3 2 0 1 0 0 0 2 5 4 43 51 26 4 4 0 1 1 6 21 58 75 66 119 229 300 530 773 1031 1149 1000 1258 1350 1825 2615 2652 2614 2757 2758 2888 3121 3324
0 0 0 0 0 0 0 0 2 2 1 2 1 0 0 0 0 0 0 0 0 1 23 11 4 17 11 8 7 16 11 0 2 73 114 90 165 228 265 499 1007 819 1018 1202 1311 1549 2048 2030 2159 2269 2233 2345 2438 3046
0 3 0 0 0 1 1 1 1 1 1 1 2 0 1 2 0 0 0 0 0 0 2 4 0 17 2 7 12 1 14 77 110 39 4 6 16 0 20 227 392 421 855 834 795 904 994 1140 1443 1617 1851 1967 2126 2283
0 1 0 0 0 1 1 1 0 1 1 0 3 3 1 0 0 0 0 0 1 0 0 11 1 2 4 8 9 7 10 1 6 15 3 0 13 0 0 0 0 9 152 246 203 185 412 612 861 1135 1493 1737 1818 2021
0 0 0 0 1 2 1 2 0 2 1 2 0 1 0 0 0 0 0 1 1 0 1 6 0 0 0 2 3 33 18 2 1 6 15 1 0 0 0 0 0 0 0 0 0 0 0 5 69 486 755 1223 1517 1711
0 0 0 0 1 1 5 3 1 0 1 1 1 1 1 1 2 2 1 1 1 0 0 0 0 0 0 0 16 35 50 32 0 6 1 0 0 0 0 0 0 0 0 0 0 0 0 0 0 21 155 389 749 1054
0 0 0 0 17 8 1 0 0 1 0 0 1 1 2 1 1 1 0 0 0 0 0 0 0 0 0 0 0 3 11 45 15 3 19 22 11 0 0 0 0 0 0 0 0 0 0 0 0 0 0 43 311 528
0 0 3 14 2 1 0 2 3 1 1 1 2 2 1 2 1 1 1 0 0 0 0 0 0 0 0 0 0 0 8 36 58 35 4 16 8 0 0 0 0 0 0 0 0 0 0 0 0 0 0 0 69 342
1 7 7 2 1 0 1 2 1 1 2 2 2 1 1 2 1 1 0 0 0 0 0 0 0 0 0 0 0 0 1 17 34 0 0 14 24 0 0 0 0 0 0 0 0 0 0 0 0 0 0 0 36 122
2 0 0 0 0 4 6 6 4 1 1 1 1 4 2 0 2 2 0 0 0 0 1 1 5 2 1 1 1 0 0 23 27 3 0 0 12 0 0 0 0 0 0 0 0 0 0 0 0 0 0 0 0 13
0 0 0 1 4 3 7 3 3 1 1 1 2 13 16 1 0 0 0 0 0 0 1 3 2 1 1 2 0 0 11 16 16 21 3 0 0 0 0 0 12 7 2 0 0 0 0 0 0 0 0 0 0 0
0 0 0 4 0 2 0 0 1 1 0 18 17 9 3 1 1 0 0 6 2 3 4 7 3 4 0 1 0 0 2 14 4 0 9 0 30 29 26 30 15 2 2 0 0 0 0 0 0 0 0 0 0 0
1 1 0 0 1 1 2 2 1 18 20 8 1 2 0 0 3 3 7 15 3 0 0 0 7 7 6 1 0 1 23 46 28 27 52 34 13 7 9 5 0 0 0 0 0 0 0 0 0 0 0 0 1 0
0 0 0 0 1 1 1 5 14 19 26 17 0 0 0 3 3 5 25 7 0 0 0 0 1 6 15 25 32 25 30 34 22 23 38 19 3 0 0 0 0 0 0 0 0 0 0 0 1 1 1 2 2 1
0 0 0 0 2 3 8 14 17 26 38 25 17 1 14 44 83 82 60 13 0 0 0 0 0 1 1 2 1 0 14 25 32 15 3 0 0 0 0 0 0 0 0 0 0 0 0 0 0 0 0 0 0 0
7 2 7 4 24 4 13 32 37 45 39 23 34 32 66 88 72 16 15 9 6 0 0 0 0 0 2 1 0 0 0 1 1 0 0 0 0 0 0 0 0 0 0 0 0 0 0 0 0 0 0 0 0 0
2 4 0 8 21 6 12 23 29 21 0 0 1 8 53 72 51 26 0 0 0 0 1 0 0 0 0 0 0 0 0 0 0 0 0 0 0 0 0 0 0 0 0 0 0 0 0 0 0 0 0 0 0 0
8 29 15 0 1 4 0 15 6 8 12 7 0 0 12 14 16 25 26 21 0 0 0 0 0 0 0 0 0 0 0 0 0 0 0 0 0 0 0 0 0 0 0 0 0 0 0 0 0 1 1 0 0 0
CIN
-3 0 0 0 0 0 0 0 0 0 0 0 0 0 0 0 0 -1 0 0 0 -7 0 0 0 0 0 0 0 0 0 0 0 0 0 0 0 0 0 0 0 0 0 0 0 0 0 0 0 0 0 0 0 0
-1 0 0 0 0 0 0 0 0 0 0 0 0 0 0 0 0 -1 0 0 -7 -1 0 0 0 0 0 0 0 0 0 0 -8 0 0 0 -1 0 0 0 0 0 0 0 0 0 0 0 0 -8 0 0 -63 -65
0 0 0 0 0 0 0 0 0 0 0 0 0 0 0 0 0 0 -1 0 0 -1 0 0 0 0 0 0 0 0 0 0 -1 0 0 0 0 -105 -82 -7 0 0 0 0 0 0 0 0 0 0 0 -12 0 -158
0 0 0 0 0 0 0 0 0 0 0 0 0 0 0 0 -2 -1 -1 0 -2 -1 0 0 0 0 0 0 0 -3 -3 0 -35 -37 -5 0 0 0 0 0 -52 0 0 0 0 0 0 0 0 0 0 -28 -98 0
0 0 0 -1 0 0 0 0 0 0 0 0 0 0 0 0 -2 -1 0 0 -5 -3 0 -1 0 0 0 0 0 0 -6 -2 -13 -9 -4 0 0 -6 0 0 0 0 0 0 0 0 0 0 0 0 0 0 -172 -204
0 -1 0 0 0 0 0 0 0 0 0 0 0 0 -2 -2 -1 0 -3 -3 -4 -1 -1 0 0 0 0 0 0 -1 0 -8 -6 -11 -10 0 0 0 0 -3 -101 -75 -49 -65 -31 0 0 0 0 0 0 0 0 0
-1 0 -1 0 0 0 0 0 0 0 0 0 0 0 -3 -1 -1 0 -3 0 -5 -12 -6 0 0 0 0 -8 -6 -1 -2 -7 -7 -4 -3 0 0 0 -1 0 -203 -210 -141 -118 -83 -57 0 0 0 0 0 0 0 -18
0 0 0 0 0 0 0 0 0 0 0 0 0 0 -1 -1 -1 0 0 0 -23 -6 -12 -1 -1 0 -4 -2 -1 -4 -1 -3 -6 -2 -6 0 -3 0 0 0 -120 -196 -58 -88 -116 -149 -119 -105 -139 -148 -150 -110 0 -62
0 0 0 0 0 0 0 0 0 0 0 0 0 0 -1 0 0 0 0 -6 0 -4 -1 -1 0 0 -3 -1 -3 -6 -22 -33 -30 0 -1 -4 0 -1 0 0 -78 -140 -12 -108 -138 -146 -139 -120 -132 -194 -199 -188 -101 -81
-1 0 0 0 0 0 0 0 0 0 0 0 0 0 0 -2 -22 -1 -1 -5 -3 -1 0 -2 0 0 0 0 0 -1 -1 0 -13 -2 -2 0 0 0 0 0 -143 -41 -71 -93 -103 -130 -174 -210 -241 -267 -252 -228 -202 -128
0 0 0 0 0 0 0 0 0 0 0 -13 -2 -1 0 -30 -2 -4 -1 -3 0 0 0 0 -1 0 -1 0 0 -1 -19 -33 -52 -101 -19 -3 0 0 0 0 0 -216 -228 -166 -162 -171 -198 -219 -252 -277 -256 -246 -212 -144
0 0 0 0 0 0 0 0 0 0 -4 0 0 -6 -18 -3 -1 -3 -2 -1 -1 0 0 0 0 0 -4 -1 -2 -1 -1 -28 -117 -46 -43 -71 -7 0 0 0 0 -28 -195 -154 -155 -174 -178 -176 -182 -186 -125 -176 -212 -168
0 0 0 0 0 0 0 0 0 0 0 -4 0 0 0 0 -1 -1 -1 -1 -3 -5 -5 -13 -1 -2 -2 -1 -1 0 -2 -3 -22 -4 -30 -94 -50 -61 0 0 0 -11 -124 -119 -109 -84 -81 -101 -58 -111 -116 -129 -171 -162
0 0 0 0 0 0 0 0 0 0 -1 0 0 0 0 0 0 0 0 -2 -8 -37 -44 -32 -1 -1 -2 0 -2 0 0 -8 -7 -15 -34 -71 -103 -17 -19 -101 -17 -76 -85 -108 -106 -81 -109 -44 -42 -68 -67 -99 -98 -122
0 0 0 0 0 0 0 0 0 -1 0 0 0 0 0 0 0 -1 -9 -6 -31 -23 -53 -25 -1 -3 -1 0 0 0 0 0 -53 0 -70 -77 -19 -23 -53 -68 -61 -105 -146 -124 -66 -33 -16 -36 -48 -40 -64 -68 -44 -64
0 0 0 0 0 0 0 0 0 -2 0 0 0 0 0 0 0 0 0 -22 -26 -72 -12 -9 -9 0 -1 -1 0 0 -1 -36 -20 -65 -144 -99 -15 -35 -21 -20 -16 -31 -48 -37 -63 -56 -20 -65 -68 -82 -101 -81 -77 -37
0 0 0 0 0 0 0 0 -1 -1 0 0 0 0 0 0 0 0 0 0 0 -64 -5 -3 -1 0 -5 0 0 -1 0 -1 -10 -14 -40 -24 -20 -36 -49 -20 -13 -28 -11 -25 -38 -15 -4 -37 -63 -44 -35 -90 -102 -73
0 -1 0 -7 0 -1 -2 0 0 0 0 0 0 0 -2 -4 -2 0 0 0 0 0 -3 -5 0 -2 0 0 -1 -13 -4 -1 -1 -6 -22 -26 -52 0 -75 -34 -17 -52 -18 -12 -59 -47 -74 -117 -103 -99 -86 -79 -81 -107
0 -2 0 0 0 0 0 0 0 0 0 0 0 -5 -5 0 0 0 0 0 0 0 0 -19 -6 -3 -4 -2 -10 -10 -21 -9 -13 -19 -19 0 -9 0 0 0 0 -57 -28 -75 -87 -195 -144 -147 -125 -142 -115 -87 -103 -95
0 0 0 0 0 -6 0 0 0 0 0 0 0 0 0 0 -1 0 0 0 0 0 -3 -2 0 -16 0 -19 -13 -10 -25 -48 -32 -14 -37 -6 0 0 0 0 0 0 0 0 -15 0 0 -83 -306 -200 -182 -120 -93 -102
0 0 0 0 0 0 -4 0 0 0 0 0 0 0 0 0 0 0 0 0 0 0 0 0 -1 -1 -36 -51 -30 -15 -9 -11 0 -44 -22 0 -3 -1 0 0 0 0 0 0 0 0 0 0 0 -292 -300 -258 -208 -165
0 0 -3 -2 0 0 0 0 0 -4 -2 0 0 0 0 0 0 0 0 0 0 0 0 0 0 0 0 0 0 -64 -42 -4 -22 -37 -52 -55 -27 0 0 0 0 0 0 0 0 0 0 0 0 0 0 -325 -224 -206
0 0 -1 -1 0 0 0 0 0 0 0 0 0 0 0 0 0 0 0 0 0 0 0 0 0 0 0 0 0 0 -63 -30 -14 -11 -16 -23 -15 0 0 0 0 0 0 0 0 0 0 0 0 0 0 0 -298 -202
-1 -1 0 0 0 0 0 -2 0 0 0 0 0 0 -4 -6 0 0 0 0 0 0 0 0 0 0 0 0 0 0 -27 -34 -14 0 -31 -55 -38 0 0 0 0 0 0 0 0 0 0 0 0 0 0 0 -311 -282
0 0 0 0 0 0 -1 -1 0 0 0 0 0 -1 -5 0 -3 -1 0 -1 0 0 0 0 0 0 0 0 0 0 0 -8 -4 -14 0 0 -18 0 0 0 0 0 0 0 0 0 0 0 0 0 0 0 0 -405
-1 -1 0 -1 -1 -1 -1 0 0 0 0 -2 -3 -2 -6 -6 0 0 0 0 -2 -1 0 -9 -18 0 0 0 0 0 -13 -12 -14 -8 -11 0 0 0 0 0 -18 -24 -29 0 0 0 0 0 0 0 0 0 0 0
0 0 0 -15 -7 -10 0 0 0 0 0 -1 -2 -5 -1 0 0 0 0 -19 -9 -1 -6 -13 -12 -3 0 0 0 0 -43 -34 -32 0 -16 0 -25 -52 -44 -31 -33 -24 -20 0 0 0 0 0 0 0 0 0 0 0
0 -1 0 0 0 0 0 0 0 -2 -7 -4 -1 -2 0 0 -18 -58 -64 -47 -32 0 0 0 -20 -6 -2 -2 0 -55 -38 -27 -22 -18 -35 -56 -63 -46 -56 -59 0 0 0 0 0 0 0 0 0 0 0 0 0 0
0 0 0 0 0 0 0 -3 -9 -13 -9 -4 0 -3 -1 -53 -65 -60 -69 -87 -65 0 0 0 0 -6 -3 -4 -5 -15 -26 -13 -10 -7 -9 -31 -45 0 0 0 0 0 0 0 0 0 0 0 0 0 0 0 0 0
0 0 0 0 -4 -5 -1 -6 -11 -12 -10 -17 -52 -9 -30 -25 -25 -25 -33 -95 -11 0 0 0 0 0 0 0 0 -3 -38 -36 -26 -20 -29 0 0 0 0 0 0 0 0 0 0 0 0 0 0 0 0 0 0 -1
-10 -8 -10 -9 -1 -11 -7 -17 -12 -3 -16 -20 -18 -27 -16 -19 -13 -36 -78 -84 -37 0 0 0 0 0 0 0 0 0 0 0 -19 0 0 0 0 0 0 0 0 0 0 0 0 0 0 0 0 0 0 0 0 0
-17 -33 -1 -3 -3 -10 -32 -15 -7 -14 -3 -11 -16 -45 -37 -9 -4 -13 0 0 0 0 -12 0 0 0 0 0 0 0 0 0 0 0 0 0 0 0 0 0 0 0 0 0 0 0 0 0 0 0 0 0 0 0
-24 -2 -9 -6 -2 -11 -8 -15 -21 -16 -13 -10 0 0 -54 -14 -7 -22 -20 -15 0 0 0 0 0 0 0 0 0 0 0 0 0 0 0 0 0 0 0 0 0 0 0 0 0 0 0 -1 -6 -10 -15 0 0 0
Wind_Speed
21 21 20 20 21 21 22 23 23 23 24 25 26 27 27 28 27 25 25 26 24 26 31 31 32 32 30 29 34 32 34 27 33 39 41 44 46 43 43 47 44 47 41 40 40 40 43 42 25 28 31 18 12 36
23 22 20 21 21 21 22 22 22 23 23 24 25 25 26 27 27 24 23 22 26 25 26 34 32 29 26 28 35 32 30 31 26 33 35 37 45 39 41 54 44 46 49 41 36 35 31 27 20 25 13 28 18 19
25 24 22 22 22 21 21 22 22 22 23 24 24 26 28 25 24 22 23 25 30 28 30 20 20 20 22 27 28 34 30 27 25 28 34 37 42 34 42 42 48 52 45 48 47 46 44 39 32 23 20 16 33 34
28 25 22 22 22 21 21 21 22 22 22 26 25 27 25 24 22 20 18 17 18 20 23 21 20 20 22 22 28 25 29 29 20 25 36 40 43 32 37 38 38 45 40 48 47 50 44 45 33 27 18 16 28 16
28 25 23 22 22 21 21 22 22 21 25 26 29 26 21 22 19 17 13 10 7 9 18 24 32 24 12 12 25 33 31 31 23 32 39 45 39 36 37 41 46 36 36 41 56 50 48 50 38 30 23 23 4 7
28 24 24 22 22 21 22 21 21 28 27 30 29 22 19 19 19 18 20 18 9 3 16 23 21 21 15 9 10 17 26 32 23 34 38 39 40 36 36 40 33 25 25 21 33 42 51 50 37 35 29 26 24 11
26 24 25 23 23 22 21 21 25 29 31 31 27 20 17 13 12 9 14 15 17 15 16 24 20 14 18 14 6 2 11 22 21 32 40 41 41 36 41 49 32 28 27 22 17 20 36 41 45 41 32 29 27 22
25 24 25 23 23 22 22 22 29 31 32 32 25 16 14 12 9 5 8 12 2 13 14 13 12 18 15 7 7 4 6 11 27 36 36 38 37 38 46 39 36 34 27 21 16 16 20 24 26 26 26 23 24 17
25 23 23 21 22 22 22 26 30 30 31 33 24 16 17 12 12 14 13 8 6 5 12 10 11 13 12 11 11 13 9 16 24 39 40 35 41 50 53 40 34 29 26 23 19 19 20 21 22 23 25 21 14 5
16 18 21 20 21 21 23 29 29 31 30 30 18 18 17 19 14 14 14 12 9 7 7 3 5 5 11 14 16 14 25 23 26 35 29 35 50 55 53 49 37 29 26 24 23 23 24 24 24 26 26 26 24 18
20 13 15 17 17 19 25 27 29 28 25 18 17 16 16 15 12 10 11 10 11 10 10 9 8 9 13 15 17 21 21 22 25 23 30 32 43 52 47 48 42 36 30 27 24 24 26 28 30 29 29 29 27 23
8 14 10 12 14 19 27 25 25 24 22 20 15 15 12 10 9 10 10 12 11 11 12 12 11 11 12 13 20 20 22 22 22 12 24 29 35 42 45 44 43 37 34 30 26 28 29 29 31 33 31 31 32 29
11 5 7 5 6 25 25 11 18 21 27 18 15 13 13 12 10 11 11 11 12 11 9 10 12 13 13 21 21 19 21 20 18 21 20 24 25 30 35 35 38 37 33 31 27 27 28 28 29 31 33 33 32 34
8 6 3 5 9 21 15 6 9 17 14 12 14 11 10 12 13 13 10 10 8 8 9 12 12 13 13 21 20 21 21 20 20 22 23 21 21 22 22 26 33 31 32 33 31 29 28 28 25 28 28 29 33 38
6 3 6 13 12 20 3 10 12 13 12 13 11 9 9 12 17 16 19 4 18 11 13 15 12 15 17 19 21 21 20 23 22 21 16 18 22 24 26 24 26 29 32 34 33 33 30 27 26 24 23 24 26 28
9 12 10 11 10 11 11 12 11 11 11 8 8 9 9 12 14 18 19 16 17 18 19 16 14 13 16 18 19 22 24 23 24 24 23 20 23 22 24 23 23 23 26 26 29 30 27 28 27 25 23 22 21 18
12 12 15 17 20 12 12 7 11 8 8 9 8 8 11 14 14 16 22 19 18 19 19 17 17 16 16 17 16 18 21 21 15 18 21 24 21 19 18 20 19 21 20 18 20 18 20 20 21 23 23 21 19 18
10 14 9 19 24 21 20 10 9 8 7 6 5 5 6 3 6 14 17 21 19 20 20 19 20 18 15 15 17 8 10 15 13 11 16 20 16 19 18 12 11 11 13 10 8 6 8 11 16 19 19 20 19 18
14 22 20 17 15 16 11 10 10 8 7 6 6 7 8 5 6 14 17 21 20 20 23 21 23 20 17 18 17 18 18 17 15 17 19 16 13 9 6 8 6 6 9 9 9 3 5 7 10 14 18 18 17 17
20 19 19 17 11 14 10 10 11 8 7 9 9 9 9 9 9 11 15 19 18 17 3 12 19 15 19 22 20 17 16 16 12 14 18 11 12 10 7 7 6 4 5 9 7 4 6 7 9 10 10 11 13 15
17 11 18 12 13 12 12 10 9 9 8 9 9 10 12 12 12 14 14 15 14 13 5 16 23 23 22 22 20 15 14 13 12 21 18 15 12 12 10 8 5 5 5 6 6 6 7 8 10 11 10 11 10 10
18 18 17 18 16 14 13 11 9 9 11 9 8 13 14 14 13 14 15 15 14 11 9 7 24 27 28 27 25 20 16 13 14 24 21 18 15 12 12 10 10 9 8 9 9 8 9 11 11 11 11 13 10 8
16 16 17 16 15 14 12 11 11 12 10 11 12 13 15 15 16 18 15 14 12 10 9 12 20 23 25 26 28 29 25 18 19 21 22 19 19 16 13 11 11 12 12 12 12 14 13 13 14 14 13 13 13 13
16 16 15 15 15 12 10 11 13 12 12 13 14 15 16 15 17 18 17 15 10 8 5 9 17 26 25 25 26 26 29 27 21 21 21 20 20 16 15 16 16 15 14 14 13 14 14 16 17 16 15 15 14 14
15 15 15 15 13 11 11 11 13 13 12 14 13 16 18 17 20 20 17 14 3 7 10 25 25 24 25 26 26 25 29 28 28 29 24 23 19 14 17 19 17 18 15 15 16 14 17 18 18 17 17 17 16 15
14 15 15 12 10 11 11 12 12 11 11 13 13 15 16 18 18 16 18 12 10 4 15 24 21 19 18 19 22 25 25 22 22 22 24 19 18 17 17 17 12 13 14 14 16 17 18 19 20 20 21 20 19 17
13 13 13 11 11 12 13 13 13 13 13 12 13 18 18 20 19 12 9 11 13 9 3 11 14 15 15 14 18 19 17 16 17 20 21 18 11 11 10 10 12 15 16 16 17 17 16 18 18 18 20 19 18 17
13 12 11 10 11 14 15 13 14 17 17 19 17 20 21 20 20 15 15 15 16 14 12 4 9 10 11 11 10 13 14 15 19 12 6 6 9 10 10 11 13 15 15 15 16 16 16 16 15 12 14 15 17 18
13 13 11 8 11 14 15 14 16 19 14 21 24 26 24 20 18 19 21 20 17 17 22 17 11 12 11 10 8 5 9 12 17 10 8 10 11 14 14 14 14 13 13 14 15 16 15 15 15 13 12 11 10 11
12 16 10 10 9 11 11 18 16 12 15 19 18 16 17 18 18 17 18 25 23 21 23 20 15 12 13 16 11 8 8 9 10 9 9 11 12 11 11 10 10 11 11 11 12 13 14 15 15 15 15 14 13 13
14 13 12 10 10 12 13 13 14 14 17 13 13 14 14 14 20 22 24 21 20 26 27 14 9 4 26 23 12 7 6 8 8 10 10 10 9 9 9 9 10 11 12 12 12 12 13 12 12 13 14 14 13 13
13 12 12 11 9 12 13 10 10 7 7 8 8 12 7 16 21 22 21 21 20 24 33 35 27 14 11 15 14 12 12 13 11 12 10 8 9 10 10 10 11 12 12 13 12 12 12 13 14 14 15 15 15 14
14 15 14 13 12 10 12 11 10 9 10 13 16 15 12 10 3 10 12 12 25 27 29 31 31 32 34 35 34 33 29 27 30 30 28 22 19 17 14 12 9 13 16 17 15 14 13 13 12 14 15 16 15 15
Wind_Direction
349 347 346 347 346 345 346 346 347 346 344 342 339 334 331 326 327 331 322 322 324 314 307 303 299 300 302 298 288 291 293 282 274 258 253 249 249 246 247 242 242 239 240 240 242 241 237 231 255 245 238 273 253 224
345 344 343 343 343 342 343 345 345 344 343 341 337 338 331 330 330 335 332 331 325 315 313 305 302 300 294 295 286 282 279 285 283 260 254 252 243 248 248 240 244 239 236 239 243 242 244 236 244 245 269 245 198 180
340 338 338 339 340 340 341 342 342 343 341 339 338 332 326 335 339 337 332 329 317 320 319 314 310 304 290 286 282 277 277 286 282 265 254 248 242 250 244 245 240 240 244 244 244 242 238 237 245 258 285 273 182 169
335 336 336 337 338 339 339 340 339 340 341 332 335 326 335 340 341 343 341 339 335 338 330 334 334 322 313 300 285 271 270 270 285 265 247 242 239 250 246 249 252 239 243 241 243 239 242 236 244 251 261 274 148 217
334 334 334 335 335 336 337 337 338 341 332 329 320 334 343 342 347 346 342 332 330 340 337 328 322 274 249 263 282 271 265 262 262 258 244 239 239 248 251 251 240 241 242 249 236 237 236 229 240 247 260 249 51 235
333 333 333 334 334 335 336 337 337 319 329 317 325 343 347 346 351 358 353 4 2 235 342 338 344 329 246 268 253 271 258 256 255 252 243 238 239 242 242 237 241 254 256 285 249 239 234 233 242 246 253 254 260 258
334 333 331 332 330 334 337 338 324 318 306 312 333 348 351 352 358 2 3 14 14 17 351 336 352 15 350 343 335 250 246 253 257 247 238 237 233 234 237 229 236 254 262 272 276 248 231 235 237 238 248 255 260 272
335 332 329 330 330 333 335 334 312 308 297 303 340 352 354 358 358 346 217 206 61 4 6 14 10 3 25 40 85 98 137 255 249 237 235 235 225 229 229 227 235 241 262 259 268 260 249 243 242 237 245 259 258 273
337 334 331 334 333 331 334 321 296 284 291 302 346 4 8 25 29 30 31 60 107 55 16 25 27 27 53 104 111 123 113 261 249 233 225 222 223 224 217 224 237 239 251 251 259 255 249 246 242 238 238 247 254 300
354 346 337 339 336 334 332 301 288 295 290 307 7 15 16 9 30 38 31 38 77 73 32 70 65 122 120 124 132 123 198 235 230 215 214 230 229 228 222 226 238 243 248 249 246 245 247 245 245 240 239 241 243 248
349 359 355 348 347 341 321 287 304 293 317 6 15 15 18 20 29 53 51 76 63 67 96 90 108 125 133 156 154 175 208 204 199 230 229 231 223 218 225 225 232 238 243 247 250 254 253 251 247 245 245 245 246 251
11 359 9 2 355 341 287 291 325 311 342 356 4 360 15 39 76 67 93 88 90 87 86 65 69 110 110 126 227 218 189 215 228 93 231 229 223 223 219 223 229 233 237 246 252 254 254 253 251 248 248 249 248 254
12 39 23 46 37 288 275 24 347 334 320 8 25 43 52 77 91 93 117 101 54 62 81 69 88 103 114 218 220 238 225 227 245 227 235 228 231 223 224 227 230 234 239 243 253 256 256 260 258 250 250 251 253 251
30 38 86 167 192 246 229 70 38 5 22 34 33 44 79 97 110 115 154 186 116 126 132 118 107 92 163 213 226 223 239 249 243 230 230 237 239 236 233 231 231 237 240 242 249 253 255 258 262 253 258 254 255 248
203 85 189 212 198 235 231 54 32 25 33 28 48 71 119 158 219 244 285 78 282 133 98 134 136 91 148 235 229 246 238 234 229 247 270 266 249 238 234 236 240 243 244 246 248 251 253 259 260 261 265 264 267 255
41 223 57 24 68 41 31 23 27 35 36 61 109 124 157 187 193 253 273 251 280 274 248 241 234 198 169 192 209 210 221 210 237 243 248 257 249 245 239 237 241 246 243 245 250 252 257 255 256 261 268 270 267 257
38 51 21 5 307 221 211 55 41 66 99 99 107 140 190 210 211 220 252 235 248 252 270 274 233 218 209 196 201 219 214 235 181 283 262 237 233 234 238 231 240 239 234 247 247 251 249 251 254 256 258 260 262 263
50 8 61 278 294 277 344 67 89 99 114 116 100 100 67 86 192 214 216 230 228 252 273 263 252 231 234 220 260 152 243 276 294 293 244 219 217 223 223 218 227 229 227 238 234 248 256 261 258 256 261 258 260 265
203 251 236 229 254 251 200 104 103 112 114 91 93 82 76 97 164 202 208 221 206 197 253 274 244 255 266 302 303 339 332 328 269 236 221 227 232 219 190 203 213 216 213 223 195 236 283 298 284 269 265 265 262 264
238 228 218 210 172 214 180 135 88 105 132 97 80 87 91 104 123 136 185 200 192 158 29 314 280 305 301 312 301 304 306 319 253 234 220 246 230 218 213 202 208 242 262 315 358 327 295 293 302 296 292 283 272 268
235 301 234 125 164 163 198 137 120 135 128 126 118 99 106 95 98 103 115 110 129 128 101 170 226 276 297 298 317 301 313 326 235 213 223 222 227 230 224 225 243 266 273 284 309 313 312 298 289 299 299 297 298 291
247 257 236 217 221 186 173 138 145 148 152 142 127 100 95 90 108 102 87 107 115 70 58 31 237 261 266 263 264 268 262 284 244 218 222 231 226 230 236 246 253 262 277 278 293 307 303 303 309 302 297 290 293 294
225 202 218 210 197 179 176 138 151 136 155 117 103 102 87 84 79 74 89 78 96 95 77 12 240 241 240 237 246 242 232 245 234 222 214 225 234 243 250 261 269 269 277 281 289 289 297 306 309 302 295 290 284 279
214 219 210 195 174 188 176 161 147 131 121 94 89 77 78 90 87 75 77 75 79 71 143 197 227 269 261 244 241 237 220 207 219 228 240 242 242 253 265 263 268 279 289 290 294 297 298 294 296 295 296 286 282 287
216 210 202 193 180 191 174 161 132 112 105 91 97 82 79 106 78 72 71 69 71 266 22 301 297 272 262 250 239 234 222 220 215 198 224 241 254 270 268 265 272 274 284 294 299 300 296 296 294 291 288 290 285 281
217 198 184 203 211 178 172 151 138 124 117 105 96 99 100 90 85 86 70 73 52 335 280 304 308 287 267 255 233 220 219 233 238 242 234 254 263 266 265 264 285 302 319 317 313 309 303 297 291 287 281 281 282 282
210 214 192 185 177 172 163 151 135 114 104 105 99 102 109 82 79 92 82 73 57 47 76 277 279 284 252 242 234 238 251 253 247 243 253 255 293 308 310 306 302 290 311 310 313 318 321 313 304 296 283 281 280 287
208 217 191 182 200 166 152 157 128 108 107 96 105 109 101 89 77 84 84 90 69 77 94 164 167 198 205 224 240 241 247 242 235 274 15 354 328 319 321 317 327 326 331 339 339 341 337 343 353 334 293 285 282 285
206 181 159 197 181 172 148 154 140 112 120 103 102 102 100 95 88 82 81 90 90 87 84 101 138 171 191 204 224 264 237 245 241 279 296 293 307 311 316 324 333 340 348 354 3 11 13 16 15 6 359 350 336 316
239 138 196 189 199 207 182 137 137 142 125 117 119 122 107 96 91 98 104 94 94 92 89 95 111 138 165 182 205 230 259 283 281 308 314 310 321 324 325 335 348 359 5 11 11 12 23 22 20 18 17 12 9 8
279 226 214 207 196 193 187 182 157 152 132 134 128 119 114 116 105 103 97 104 103 92 85 92 76 74 107 125 179 225 271 280 324 357 14 21 14 6 6 3 358 359 360 1 3 355 348 349 2 5 8 12 16 15
232 235 246 249 212 220 200 221 192 221 262 207 154 131 142 117 96 97 112 108 106 94 70 73 94 94 38 34 30 28 29 32 26 30 23 5 359 359 359 9 15 17 17 12 12 12 11 19 21 31 33 33 36 38
231 238 250 268 247 243 244 236 284 264 317 151 149 138 143 147 117 126 121 103 98 90 88 88 93 94 94 97 102 107 71 62 68 74 76 62 53 45 43 35 15 38 44 49 40 32 22 32 35 43 45 45 43 40